[[{"header":{"parameterUnit":"m.s-1","parameterCategory":1,"la1":30.2991,"la2":30.254,"lo1":-89.0895,"lo2":-89.0444,"dy":0.0017,"dx":0.0017,"nx":28,"ny":28,"refTime":"2023-07-19T03:00:00:Z","depth":0,"parameterNumber":2,"parameterNumberName":"U-component_of_WINDS"},"data":[0,0,0,0,0,0,0,0,0,0,0,0,0,0,0,0,0,0,0,0,0,0,0,0,0,0,0,0,0,0,0,0,0,0,0,0,0,0,0,0,0,0,0,0,0,0,0,0,0,0,0,0,0,0,0,0,0,0,0.0635,0.0636,0,0.0717,0.0718,0.0719,0.0759,0.0759,0.0759,0.0759,0.0846,0.0848,0.0851,0,0,0,0,0,0,0,0,0,0,0,0,0,0.0515,0.0517,0.0635,0.0636,0.0637,0.0717,0.0718,0.0719,0.0759,0.0759,0.0759,0.0759,0.0845,0.0848,0.0851,0,0,0,0,0,0,0,0,0,0,0,0,0,0.0579,0.0518,0.0635,0.0666,0.067,0.0716,0.0718,0.0719,0.0759,0.0759,0.0759,0.0759,0.0844,0.0848,0.0851,0.0874,0,0,0.0862,0.0863,0,0,0,0,0,0,0,0,0.0576,0.0584,0.0661,0.0664,0.0668,0.0727,0.0708,0.0771,0.0759,0.0725,0.0759,0.0759,0.0807,0.0813,0.0829,0.0878,0.0881,0.0862,0.0864,0.0866,0.0867,0,0,0,0,0,0,0,0.0571,0.058,0.0667,0.0662,0.0666,0.0677,0.0686,0.072,0.0765,0.0728,0.0731,0.074,0.0809,0.0825,0.0831,0.0883,0.0862,0.0865,0.0867,0.0869,0.0954,0.0954,0,0,0,0,0,0,0.0561,0.0576,0.0665,0.067,0.0621,0.0679,0.0689,0.0709,0.0765,0.0773,0.074,0.0742,0.0819,0.0827,0.0834,0.0864,0.0866,0.0869,0.0871,0.0953,0.0954,0.0954,0,0,0,0,0,0,0.0558,0.0569,0.0661,0.0624,0.0637,0.0681,0.0702,0.071,0.0727,0.0774,0.0783,0.0748,0.082,0.083,0.0863,0.0868,0.0871,0.0874,0.0953,0.0954,0.0954,0.0924,0,0,0,0,0,0,0.0555,0.0567,0.0576,0.0624,0.0638,0.0688,0.0703,0.0712,0.0732,0.0735,0.0784,0.0792,0.082,0.0858,0.0867,0.0873,0.0877,0.0953,0.0953,0.0954,0.0925,0.0923,0.0922,0,0,0,0,0,0.055,0.0565,0.0576,0.0586,0.065,0.0688,0.0697,0.0728,0.0732,0.0742,0.0772,0.0791,0.0866,0.0861,0.0871,0.0878,0.0953,0.0953,0.0954,0.0925,0.0923,0.0922,0,0,0,0,0,0,0.0518,0.0572,0.0585,0.0615,0.0646,0.0695,0.0707,0.0725,0.0756,0.0758,0.0796,0.0807,0.0837,0.0861,0.0855,0.0903,0.0911,0.0914,0.0886,0.0885,0.0883,0.0877,0.088,0,0,0,0,0,0.0513,0.0539,0.0586,0.0608,0.0623,0.0662,0.068,0.0701,0.0736,0.075,0.0783,0.0816,0.0848,0.0867,0.0899,0.0928,0.094,0.0938,0.0937,0.0935,0.0937,0.0954,0.0954,0.0955,0.0955,0.0955,0,0,0.0506,0.0539,0.0553,0.0602,0.0629,0.0656,0.0673,0.0701,0.0721,0.0754,0.0788,0.0813,0.0853,0.0885,0.09,0.0906,0.0939,0.0936,0.0934,0.0937,0.0955,0.0955,0.0954,0.0955,0.0955,0.0955,0,0,0.0506,0.0533,0.0555,0.0581,0.0621,0.0647,0.0652,0.0697,0.0715,0.0749,0.0774,0.0799,0.0852,0.088,0.0901,0.091,0.0929,0.0919,0.0912,0.0928,0.0928,0.0928,0.0932,0.0932,0.0921,0.0921,0.0921,0,0.0492,0.0532,0.0564,0.059,0.0611,0.064,0.0663,0.0687,0.0736,0.075,0.0755,0.0821,0.0851,0.0889,0.0891,0.0907,0.0914,0.0914,0.0925,0.0926,0.0926,0.093,0.0931,0.0919,0.0919,0.092,0.092,0,0.0513,0.0541,0.0553,0.0598,0.062,0.0644,0.068,0.0699,0.0718,0.0744,0.0778,0.0814,0.0853,0.0863,0.0883,0.0904,0.0906,0.0918,0.0927,0.0924,0.0928,0.093,0.0917,0.0918,0.0918,0.0919,0,0,0.0496,0.0557,0.0561,0.0581,0.0627,0.065,0.0675,0.0712,0.0727,0.076,0.0782,0.0826,0.0836,0.086,0.0883,0.0897,0.0902,0.0907,0.0909,0.0905,0.0928,0.0919,0.092,0.0914,0.0915,0.0915,0.0925,0,0.0502,0.0548,0.0577,0.0612,0.0637,0.0666,0.0688,0.0719,0.0743,0.0769,0.0797,0.0827,0.0839,0.0853,0.0868,0.0898,0.0907,0.0898,0.0936,0.0937,0.0926,0.0923,0.0914,0.0921,0.0926,0.0927,0.0927,0,0.0517,0.0547,0.0583,0.0626,0.0638,0.0657,0.0693,0.0717,0.0753,0.077,0.0795,0.0818,0.0847,0.0853,0.0893,0.0886,0.0903,0.092,0.0921,0.0926,0.0932,0.0928,0.0924,0.0925,0.093,0.093,0.0929,0,0.05,0.055,0.0578,0.0595,0.0645,0.0658,0.068,0.0716,0.0736,0.0767,0.0781,0.0816,0.0835,0.0862,0.0893,0.0895,0.093,0.0939,0.0945,0.0944,0.0952,0.0951,0.0951,0.0963,0.0962,0.0962,0.0962,0,0.0505,0.0526,0.0572,0.0589,0.0614,0.0647,0.0671,0.0695,0.0727,0.075,0.0777,0.0798,0.0838,0.0865,0.089,0.0919,0.0928,0.0942,0.0949,0.094,0.0938,0.0953,0.0953,0.0963,0.0963,0.0963,0.0963,0,0.0491,0.0522,0.0555,0.0599,0.0611,0.0627,0.0666,0.0684,0.071,0.0739,0.0747,0.0787,0.082,0.0854,0.0898,0.0915,0.0943,0.0952,0.0931,0.0934,0.0939,0.0938,0.0949,0.0952,0.096,0.096,0.096,0,0.0492,0.0509,0.0555,0.0571,0.0592,0.0619,0.064,0.0673,0.0693,0.0734,0.0748,0.0782,0.0811,0.0862,0.0895,0.0929,0.0939,0.0941,0.0945,0.0935,0.094,0.0938,0.094,0.0939,0.0939,0.0939,0.0939,0,0.049,0.0505,0.0532,0.0565,0.0589,0.0616,0.0645,0.0658,0.0697,0.0718,0.0751,0.0774,0.0818,0.0852,0.089,0.0913,0.0932,0.0937,0.094,0.0932,0.0919,0.0926,0.0927,0.0937,0.0937,0.0937,0.0937,0.0937,0.0484,0.05,0.0535,0.0565,0.059,0.0616,0.0635,0.0662,0.069,0.0728,0.0746,0.0779,0.0814,0.0867,0.089,0.0916,0.0922,0.0927,0.0928,0.0929,0.0926,0.0914,0.0923,0.0923,0.0923,0.0924,0.0924,0,0.0484,0.0508,0.0535,0.0574,0.0597,0.0612,0.0645,0.0664,0.0692,0.0723,0.075,0.0788,0.082,0.0856,0.0891,0.0905,0.0915,0.0913,0.0913,0.0918,0.0919,0.0913,0.0905,0.0905,0.0905,0.0905,0.0905,0.0905,0.0487,0.0515,0.0534,0.0574,0.0598,0.063,0.0647,0.0671,0.0696,0.0736,0.0763,0.0786,0.0818,0.0856,0.0886,0.0896,0.0908,0.0903,0.0916,0.0917,0.0918,0.0919,0.0914,0.0906,0.0906,0.0912,0.0912,0.0912]},{"header":{"parameterUnit":"m.s-1","parameterCategory":1,"la1":30.2991,"la2":30.254,"lo1":-89.0895,"lo2":-89.0444,"dy":0.0017,"dx":0.0017,"nx":28,"ny":28,"refTime":"2023-07-19T03:00:00:Z","depth":0,"parameterNumber":3,"parameterNumberName":"V-component_of_WINDS"},"data":[0,0,0,0,0,0,0,0,0,0,0,0,0,0,0,0,0,0,0,0,0,0,0,0,0,0,0,0,0,0,0,0,0,0,0,0,0,0,0,0,0,0,0,0,0,0,0,0,0,0,0,0,0,0,0,0,0,0,3.0889,3.0889,0,3.0884,3.0884,3.0884,3.0894,3.0894,3.0894,3.0895,3.0887,3.0887,3.0886,0,0,0,0,0,0,0,0,0,0,0,0,0,3.0906,3.0905,3.0889,3.0889,3.0889,3.0884,3.0884,3.0884,3.0894,3.0894,3.0894,3.0895,3.0887,3.0887,3.0886,0,0,0,0,0,0,0,0,0,0,0,0,0,3.0899,3.0905,3.0889,3.0893,3.0894,3.0884,3.0884,3.0884,3.0893,3.0894,3.0894,3.0895,3.0888,3.0887,3.0886,3.0871,0,0,3.0884,3.0884,0,0,0,0,0,0,0,0,3.0899,3.0898,3.0893,3.0893,3.0893,3.089,3.0887,3.0879,3.0893,3.0894,3.0895,3.0895,3.0888,3.0887,3.0885,3.0871,3.0871,3.0884,3.0883,3.0883,3.0883,0,0,0,0,0,0,0,3.09,3.0899,3.0887,3.0893,3.0893,3.0895,3.0894,3.0885,3.0888,3.0894,3.0894,3.0894,3.0888,3.0885,3.0885,3.0871,3.0884,3.0883,3.0883,3.0882,3.0842,3.0842,0,0,0,0,0,0,3.09,3.0899,3.0887,3.0887,3.0898,3.0894,3.0894,3.0891,3.0888,3.0888,3.0893,3.0894,3.0887,3.0886,3.0884,3.0865,3.0883,3.0882,3.0882,3.0843,3.0842,3.0841,0,0,0,0,0,0,3.09,3.0899,3.0887,3.0893,3.0892,3.0893,3.089,3.089,3.0888,3.0888,3.0888,3.089,3.0887,3.0886,3.0874,3.0865,3.0882,3.0881,3.0843,3.0843,3.0842,3.0828,0,0,0,0,0,0,3.0901,3.0899,3.0894,3.0893,3.0891,3.0878,3.0889,3.089,3.0887,3.0888,3.0885,3.0885,3.0887,3.0875,3.0873,3.0865,3.0881,3.0844,3.0843,3.0842,3.0829,3.0827,3.0825,0,0,0,0,0,3.0901,3.0891,3.0894,3.0892,3.0885,3.0878,3.0877,3.088,3.0886,3.088,3.088,3.0885,3.0867,3.0874,3.0872,3.0863,3.0845,3.0843,3.0842,3.083,3.0827,3.0825,0,0,0,0,0,0,3.089,3.0891,3.0894,3.0883,3.088,3.0879,3.0873,3.0877,3.0872,3.0873,3.0876,3.0876,3.0863,3.0862,3.087,3.0847,3.0857,3.0855,3.0848,3.0845,3.0843,3.0843,3.088,0,0,0,0,0,3.0887,3.0881,3.0881,3.0871,3.087,3.0871,3.0868,3.087,3.0868,3.0866,3.0865,3.0862,3.0855,3.085,3.0844,3.0829,3.0828,3.0822,3.0819,3.0818,3.0816,3.0806,3.0802,3.0837,3.0837,3.0837,0,0,3.0879,3.0878,3.0874,3.0869,3.0867,3.086,3.087,3.0863,3.0857,3.0865,3.0854,3.0853,3.0849,3.0835,3.0829,3.0834,3.0806,3.0816,3.0814,3.0813,3.0804,3.08,3.0798,3.0836,3.0836,3.0836,0,0,3.0861,3.086,3.0851,3.0849,3.0846,3.0847,3.0845,3.0843,3.0843,3.0832,3.0837,3.083,3.0819,3.0815,3.0812,3.0791,3.0794,3.0789,3.0776,3.0766,3.0763,3.0761,3.0752,3.0749,3.0787,3.0787,3.0787,0,3.0851,3.0841,3.0846,3.0837,3.0834,3.0841,3.0831,3.0828,3.0823,3.082,3.0826,3.0811,3.0809,3.0793,3.0788,3.0786,3.0782,3.0789,3.0764,3.0761,3.0759,3.075,3.0747,3.0786,3.0786,3.0786,3.0786,0,3.0829,3.0822,3.0815,3.081,3.0805,3.0796,3.0798,3.0793,3.0796,3.0796,3.0783,3.0781,3.0774,3.077,3.0773,3.0755,3.0757,3.0763,3.0773,3.0755,3.0746,3.0743,3.0785,3.0785,3.0785,3.0786,0,0,3.0804,3.08,3.0798,3.0795,3.0792,3.0786,3.0776,3.0769,3.0764,3.076,3.0751,3.0741,3.0746,3.0742,3.0744,3.0735,3.0716,3.0742,3.0742,3.0736,3.0694,3.0688,3.0685,3.0719,3.0719,3.0718,3.0694,0,3.0784,3.0768,3.0771,3.0755,3.0748,3.0754,3.0745,3.0741,3.0741,3.0734,3.0733,3.0725,3.0733,3.073,3.0722,3.0721,3.0708,3.0723,3.0709,3.0709,3.0709,3.0681,3.0675,3.0652,3.0691,3.069,3.069,0,3.076,3.0755,3.0738,3.0734,3.0731,3.0724,3.0717,3.071,3.0706,3.0706,3.0701,3.0704,3.0693,3.0703,3.0686,3.0696,3.0691,3.0689,3.0688,3.0686,3.0697,3.0676,3.0645,3.0641,3.0685,3.0685,3.0686,0,3.0741,3.073,3.0718,3.0716,3.0712,3.0706,3.0704,3.07,3.0695,3.0689,3.0685,3.0677,3.0673,3.0666,3.0666,3.0674,3.0649,3.066,3.0647,3.0647,3.0641,3.0641,3.0607,3.064,3.064,3.064,3.064,0,3.0718,3.0707,3.0709,3.0702,3.0689,3.0692,3.0679,3.0678,3.0674,3.0665,3.067,3.0662,3.0663,3.0654,3.0654,3.0639,3.0638,3.0636,3.0636,3.0635,3.0635,3.0631,3.0632,3.0639,3.0639,3.0639,3.0639,0,3.0695,3.0696,3.0683,3.068,3.0679,3.067,3.0667,3.0659,3.0659,3.0647,3.0645,3.0644,3.0633,3.0633,3.0621,3.0621,3.0602,3.0605,3.0604,3.0604,3.0591,3.0591,3.0551,3.0545,3.0584,3.0584,3.0583,0,3.068,3.0671,3.0668,3.0662,3.066,3.0651,3.0646,3.0648,3.0643,3.0636,3.0628,3.0618,3.0611,3.0593,3.059,3.0581,3.0582,3.0569,3.0581,3.0579,3.058,3.0579,3.0578,3.0566,3.0566,3.0565,3.0565,0,3.0652,3.0653,3.0646,3.0638,3.0632,3.0626,3.0621,3.0616,3.0617,3.061,3.06,3.0594,3.0581,3.057,3.0561,3.0557,3.056,3.0561,3.0558,3.0556,3.0555,3.0553,3.0596,3.0562,3.0562,3.0563,3.0563,3.0563,3.0631,3.0623,3.0619,3.061,3.0607,3.0601,3.0593,3.0591,3.0583,3.0573,3.0575,3.0562,3.0556,3.0543,3.0539,3.0528,3.0533,3.0528,3.0526,3.0525,3.0522,3.0557,3.0527,3.0527,3.0527,3.0527,3.0527,0,3.0603,3.06,3.0592,3.0584,3.0577,3.0582,3.0575,3.0568,3.0558,3.0552,3.0544,3.0531,3.052,3.0516,3.0505,3.0497,3.0498,3.0494,3.0494,3.0493,3.052,3.0523,3.0493,3.0493,3.0493,3.0493,3.0493,3.0493,3.0587,3.0573,3.0573,3.0557,3.0554,3.0542,3.0538,3.0532,3.0527,3.0513,3.0504,3.0502,3.0496,3.0485,3.0474,3.0473,3.0468,3.0463,3.0462,3.0488,3.0491,3.0494,3.0497,3.0462,3.0462,3.0435,3.0435,3.0435]}]]